Back to catalog

FENGYUN 1C DEB

AliveSSO
NORAD 31196·DEBRIS·🇨🇳 China

Launched May 10, 1999 from Taiyuan Satellite Launch Center

Loading…

Next Passes (next 24 hours)

TLE

FreshSource: Space-Track

Epoch: Sep 12, 2026, 18:26 UTC

1 31196U 99025BKA 26255.76867259  .00000607  00000-0  26692-3 0  9996
2 31196  98.5202 266.4586 0058927 130.6685 229.9638 14.26039805674009

Track FENGYUN 1C DEB in real time with AllMySat

Download on the App Store